Location: Chuathbaluk
(61.5726°N, 159.2454°W)
Time: 03:53:13
(UTC+00:00)

Transit 2A - Pass Details

Date: 01 December 2020
Orbit: 599 x 960 km, 66.7° (Epoch: 26 January)

Event Time Altitude Azimuth Distance (km) Brightness Sun altitude
Rises 02:38:12 0° 169° (SSE) 3,612 9.8 -7.3°
Reaches altitude 10° 02:41:32 10° 152° (SSE) 2,640 8.9 -7.6°
Maximum altitude 02:45:37 19° 110° (ESE) 2,030 7.9 -8.0°
Drops below altitude 10° 02:49:34 10° 68° (ENE) 2,526 8.0 -8.4°
Enters shadow 02:49:35 10° 68° (ENE) 2,533 8.0 -8.4°
Sets 02:52:39 0° 51° (NE) 3,402 - -8.8°
